E6457 Weather Reports


Display with metric or nautical units.
time (UTC)temp
F
wind
direction
speed
MPH
gust
MPH
rain 1hr
in
rain 24hr
in
rain mn
in
humidity
%
barometer
mb
20200926004716 63 65 0.0 0.0 0.00 0.00 0.00 87 1015.5
20200926003712 63 66 0.0 0.0 0.00 0.00 0.00 88 1015.5
20200926002708 63 65 0.0 0.0 0.00 0.00 0.00 87 1015.5
20200926001715 64 65 0.0 0.0 0.00 0.00 0.00 87 1015.6
20200926000729 64 65 0.0 0.0 0.00 0.00 0.00 87 1015.6
20200925235748 65 65 0.0 0.0 0.00 0.00 0.00 86 1015.5
20200925234717 65 65 0.0 0.0 0.00 0.00 0.00 85 1015.4
20200925233729 66 65 0.0 0.0 0.00 0.00 0.00 84 1015.3
20200925232753 67 65 0.0 0.0 0.00 0.00 0.00 83 1015.3
20200925231743 68 65 0.0 0.0 0.00 0.00 0.00 81 1015.2
20200925230718 70 65 0.0 0.0 0.00 0.00 0.00 78 1015.3
20200925225713 71 65 0.0 0.0 0.00 0.00 0.00 76 1015.3
20200925224644 73 65 0.0 0.0 0.00 0.00 0.00 72 1015.3
20200925223644 75 65 0.0 0.0 0.00 0.00 0.00 69 1015.3
20200925222651 77 65 0.0 0.0 0.00 0.00 0.00 67 1015.3
20200925221622 77 65 0.0 0.0 0.00 0.00 0.00 68 1015.2
20200925220551 77 65 0.0 0.0 0.00 0.00 0.00 67 1015.2
20200925215553 77 65 0.0 2.0 0.00 0.00 0.00 65 1015.3
20200925214604 78 60 0.0 2.0 0.00 0.00 0.00 64 1015.3
20200925213528 79 38 0.0 1.0 0.00 0.00 0.00 63 1015.3
20200925212525 79 40 0.0 0.0 0.00 0.00 0.00 63 1015.3
20200925211525 79 40 0.0 2.0 0.00 0.00 0.00 63 1015.4
20200925210519 79 339 0.0 1.0 0.00 0.00 0.00 64 1015.5
20200925205536 79 55 0.0 5.0 0.00 0.00 0.00 62 1015.5
20200925204525 79 51 1.0 5.0 0.00 0.00 0.00 63 1015.6
20200925203512 80 355 0.0 2.0 0.00 0.00 0.00 63 1015.7
20200925202519 80 56 0.0 3.0 0.00 0.00 0.00 61 1015.9
20200925201517 80 338 0.0 4.0 0.00 0.00 0.00 62 1016.0
20200925200519 80 303 0.0 2.0 0.00 0.00 0.00 62 1016.1
20200925195505 80 73 0.0 4.0 0.00 0.00 0.00 62 1016.1
20200925194459 80 33 0.0 3.0 0.00 0.00 0.00 61 1016.1
20200925193442 80 317 0.0 3.0 0.00 0.00 0.00 62 1016.2
20200925192427 80 38 0.0 5.0 0.00 0.00 0.00 62 1016.2
20200925191350 79 15 0.0 5.0 0.00 0.00 0.00 63 1016.3
20200925190329 80 98 0.0 4.0 0.00 0.00 0.00 62 1016.4
20200925185315 79 321 0.0 4.0 0.00 0.00 0.00 65 1016.4
20200925184251 79 57 0.0 0.0 0.00 0.00 0.00 65 1016.4
20200925183312 79 348 0.0 4.0 0.00 0.00 0.00 62 1016.5
20200925182317 80 336 0.0 3.0 0.00 0.00 0.00 63 1016.6
20200925181310 79 313 1.0 5.0 0.00 0.00 0.00 54 1016.6
20200925180241 80 202 1.0 5.0 0.00 0.00 0.00 54 1016.7
20200925175225 79 342 0.0 1.0 0.00 0.00 0.00 56 1016.7
20200925174224 78 294 1.0 5.0 0.00 0.00 0.00 59 1016.9
20200925173221 78 283 1.0 5.0 0.00 0.00 0.00 56 1017.0
20200925172212 78 243 0.0 3.0 0.00 0.00 0.00 58 1017.1
20200925171236 78 227 1.0 5.0 0.00 0.00 0.00 58 1017.3
20200925170241 77 226 1.0 5.0 0.00 0.00 0.00 59 1017.3
20200925165211 78 205 0.0 0.0 0.00 0.00 0.00 61 1017.4
20200925164155 76 208 1.0 5.0 0.00 0.00 0.00 61 1017.4
20200925163154 77 265 1.0 5.0 0.00 0.00 0.00 62 1017.5
20200925162209 77 256 0.0 2.0 0.00 0.00 0.00 65 1017.5
20200925161151 76 248 0.0 5.0 0.00 0.00 0.00 65 1017.6
20200925160206 76 252 0.0 4.0 0.00 0.00 0.00 62 1017.7
20200925155214 75 170 0.0 0.0 0.00 0.00 0.00 68 1017.6
20200925154221 74 213 1.0 4.0 0.00 0.00 0.00 67 1017.7
20200925153152 74 213 1.0 4.0 0.00 0.00 0.00 70 1017.7
20200925152137 73 194 0.0 4.0 0.00 0.00 0.00 70 1017.7
20200925151204 73 261 1.0 4.0 0.00 0.00 0.00 72 1017.8
20200925150216 72 260 1.0 4.0 0.00 0.00 0.00 72 1017.9
20200925145236 72 182 1.0 6.0 0.00 0.00 0.00 74 1017.9
20200925144206 71 243 2.0 6.0 0.00 0.00 0.00 75 1017.8
20200925143200 71 248 0.0 3.0 0.00 0.00 0.00 78 1018.0
20200925142214 70 251 0.0 5.0 0.00 0.00 0.00 79 1018.0
20200925141211 70 291 0.0 3.0 0.00 0.00 0.00 83 1018.0
20200925140208 68 258 1.0 7.0 0.00 0.00 0.00 83 1017.9
20200925135153 68 243 1.0 7.0 0.00 0.00 0.00 84 1017.9
20200925134200 67 190 1.0 6.0 0.00 0.00 0.00 86 1017.9
20200925133208 66 232 0.0 4.0 0.00 0.00 0.00 87 1017.9
20200925132206 65 190 0.0 5.0 0.00 0.00 0.00 88 1017.8
20200925131214 65 217 2.0 6.0 0.00 0.00 0.00 88 1017.8
20200925130158 64 199 1.0 6.0 0.00 0.00 0.00 89 1017.6
20200925125148 63 220 1.0 6.0 0.00 0.00 0.00 90 1017.6
20200925124124 63 215 1.0 8.0 0.00 0.00 0.00 91 1017.5
20200925123115 62 197 1.0 8.0 0.00 0.00 0.00 91 1017.5
20200925122104 62 213 1.0 6.0 0.00 0.00 0.00 92 1017.3
20200925121106 61 224 0.0 7.0 0.00 0.00 0.00 92 1017.3
20200925120108 61 247 1.0 7.0 0.00 0.00 0.00 92 1017.3
20200925115109 61 232 0.0 5.0 0.00 0.00 0.00 92 1017.3
20200925114112 61 179 0.0 3.0 0.00 0.00 0.00 92 1017.1
20200925113046 61 241 0.0 3.0 0.00 0.00 0.00 92 1017.1
20200925112022 61 196 0.0 4.0 0.00 0.00 0.00 92 1017.0
20200925110947 61 135 0.0 4.0 0.00 0.00 0.00 92 1016.8
20200925110019 61 167 0.0 4.0 0.00 0.00 0.00 92 1016.7
20200925105025 61 201 1.0 4.0 0.00 0.00 0.00 92 1016.5
20200925104015 61 235 0.0 6.0 0.00 0.00 0.00 92 1016.3
20200925103000 62 244 2.0 6.0 0.00 0.00 0.00 92 1016.1
20200925101931 62 207 2.0 5.0 0.00 0.00 0.00 92 1015.9
20200925100955 62 213 2.0 5.0 0.00 0.00 0.00 92 1015.7
20200925095957 62 238 2.0 6.0 0.00 0.00 0.00 92 1015.7
20200925094957 62 194 2.0 6.0 0.00 0.00 0.00 92 1015.6
20200925094005 62 239 1.0 6.0 0.00 0.00 0.00 92 1015.4
20200925092948 62 246 3.0 7.0 0.00 0.00 0.00 92 1015.3
20200925091929 62 212 3.0 8.0 0.00 0.00 0.00 92 1015.2
20200925090919 62 255 2.0 8.0 0.00 0.00 0.00 92 1015.2
20200925085937 62 196 2.0 8.0 0.00 0.00 0.00 92 1015.2
20200925084937 62 219 1.0 8.0 0.00 0.00 0.00 92 1015.2
20200925083948 62 222 0.0 5.0 0.00 0.00 0.00 92 1015.2
20200925082949 62 244 0.0 3.0 0.00 0.00 0.00 92 1015.0
20200925081926 63 242 0.0 4.0 0.00 0.00 0.00 92 1014.9
20200925080939 63 234 1.0 5.0 0.00 0.00 0.00 92 1014.8
20200925075959 63 190 2.0 7.0 0.00 0.00 0.00 93 1014.8
20200925075009 63 227 2.0 7.0 0.00 0.00 0.00 93 1014.8
20200925074016 64 224 2.0 7.0 0.00 0.00 0.00 93 1014.8
20200925072953 63 147 1.0 7.0 0.00 0.00 0.00 93 1014.8
20200925071929 63 194 1.0 7.0 0.00 0.00 0.00 93 1014.8
20200925070948 63 211 0.0 4.0 0.00 0.00 0.00 93 1014.8
20200925065919 64 190 1.0 4.0 0.00 0.00 0.00 92 1014.8
20200925064849 64 249 1.0 4.0 0.00 0.00 0.00 92 1014.9
20200925063841 64 205 1.0 6.0 0.00 0.00 0.00 91 1015.0
20200925062829 64 175 1.0 6.0 0.00 0.00 0.00 90 1015.0
20200925061833 64 248 1.0 6.0 0.00 0.00 0.00 89 1014.9
20200925060829 64 198 1.0 6.0 0.00 0.00 0.00 88 1014.9
20200925055801 64 185 1.0 6.0 0.00 0.00 0.00 87 1015.0
20200925054732 64 223 1.0 5.0 0.00 0.00 0.00 87 1014.9
20200925053724 64 236 1.0 5.0 0.00 0.00 0.00 87 1014.9
20200925052701 64 213 1.0 4.0 0.00 0.00 0.00 87 1014.8
20200925051646 65 222 2.0 8.0 0.00 0.00 0.00 86 1014.8
20200925050627 65 201 2.0 8.0 0.00 0.00 0.00 86 1014.7
20200925045639 65 241 2.0 6.0 0.00 0.00 0.00 86 1014.7
20200925044656 65 224 2.0 5.0 0.00 0.00 0.00 86 1014.7
20200925043635 65 205 2.0 5.0 0.00 0.00 0.00 86 1014.7
20200925042651 65 225 2.0 8.0 0.00 0.00 0.00 86 1014.7
20200925041712 65 247 2.0 8.0 0.00 0.00 0.00 86 1014.6
20200925040723 65 217 2.0 6.0 0.00 0.00 0.00 85 1014.6
20200925035743 65 263 1.0 6.0 0.00 0.00 0.00 84 1014.6
20200925034728 65 210 3.0 6.0 0.00 0.00 0.00 83 1014.6
20200925033739 66 173 3.0 7.0 0.00 0.00 0.00 83 1014.5
20200925032755 66 230 3.0 8.0 0.00 0.00 0.00 83 1014.5
20200925031754 66 248 3.0 8.0 0.00 0.00 0.00 83 1014.5
20200925030808 66 256 2.0 6.0 0.00 0.00 0.00 83 1014.5
20200925025830 67 219 2.0 6.0 0.00 0.00 0.00 83 1014.4
20200925024758 67 251 2.0 7.0 0.00 0.00 0.00 83 1014.4
20200925023822 67 223 3.0 7.0 0.00 0.00 0.00 83 1014.4
20200925022837 67 197 2.0 6.0 0.00 0.00 0.00 83 1014.5
20200925021850 67 254 2.0 6.0 0.00 0.00 0.00 83 1014.4
20200925020849 67 240 2.0 7.0 0.00 0.00 0.00 83 1014.4
20200925015822 67 207 2.0 7.0 0.00 0.00 0.00 83 1014.4
20200925014759 67 244 2.0 9.0 0.00 0.00 0.00 83 1014.2
20200925013733 67 209 2.0 9.0 0.00 0.00 0.00 82 1014.2
20200925012716 67 225 2.0 8.0 0.00 0.00 0.00 82 1014.1
20200925011727 67 240 3.0 9.0 0.00 0.00 0.00 83 1014.0
20200925010743 67 204 3.0 9.0 0.00 0.00 0.00 83 1013.9
20200925005718 67 251 2.0 7.0 0.00 0.00 0.00 83 1013.9